[[{"header":{"parameterUnit":"m.s-1","parameterCategory":1,"la1":30.2991,"la2":30.254,"lo1":-89.0895,"lo2":-89.0444,"dy":0.0017,"dx":0.0017,"nx":28,"ny":28,"refTime":"2026-02-03T09:00:00:Z","depth":0,"parameterNumber":2,"parameterNumberName":"U-component_of_WINDS"},"data":[0,0,0,0,0,0,0,0,0,0,0,0,0,0,0,0,0,0,0,0,0,0,0,0,0,0,0,0,0,0,0,0,0,0,0,0,0,0,0,0,0,0,0,0,0,0,0,0,0,0,0,0,0,0,0,0,0,0,1.7865,1.7866,0,1.8024,1.8026,1.8028,1.8042,1.804,1.8039,1.8037,1.8202,1.8207,1.8213,0,0,0,0,0,0,0,0,0,0,0,0,0,1.7572,1.7577,1.7864,1.7866,1.7868,1.8024,1.8026,1.8028,1.8042,1.804,1.8038,1.8036,1.82,1.8207,1.8214,0,0,0,0,0,0,0,0,0,0,0,0,0,1.7712,1.7579,1.7864,1.7894,1.7899,1.8024,1.8026,1.8029,1.8043,1.804,1.8038,1.8035,1.8197,1.8206,1.8215,1.8321,0,0,1.8242,1.8246,0,0,0,0,0,0,0,0,1.7704,1.7723,1.7888,1.7892,1.7897,1.8011,1.7983,1.8127,1.8044,1.7988,1.8037,1.8034,1.814,1.8154,1.8189,1.8329,1.8336,1.8243,1.8248,1.8252,1.8255,0,0,0,0,0,0,0,1.7694,1.7716,1.7928,1.789,1.7896,1.79,1.7917,1.8011,1.8077,1.7993,1.7994,1.8013,1.8142,1.8181,1.8193,1.8338,1.8243,1.8251,1.8256,1.826,1.8572,1.8574,0,0,0,0,0,0,1.7679,1.7708,1.7923,1.7933,1.7793,1.7907,1.7926,1.7977,1.8076,1.8088,1.8015,1.8013,1.8167,1.8183,1.8199,1.8328,1.8252,1.8261,1.8266,1.8569,1.8572,1.8575,0,0,0,0,0,0,1.7673,1.7698,1.7916,1.7821,1.7849,1.7915,1.7972,1.7981,1.802,1.8092,1.8104,1.8042,1.8165,1.8186,1.829,1.8334,1.8265,1.8273,1.8565,1.857,1.8574,1.8588,0,0,0,0,0,0,1.7664,1.7696,1.7736,1.7822,1.7854,1.8004,1.7975,1.7986,1.8035,1.8034,1.8121,1.8133,1.8165,1.8277,1.8299,1.8345,1.828,1.8562,1.8567,1.8573,1.8584,1.8592,1.86,0,0,0,0,0,1.7654,1.7735,1.7738,1.7764,1.7906,1.8007,1.8025,1.8061,1.8038,1.808,1.8127,1.813,1.8326,1.8287,1.8313,1.8362,1.8559,1.8566,1.8572,1.858,1.8591,1.86,0,0,0,0,0,0,1.7653,1.7746,1.7752,1.7862,1.7927,1.8009,1.8062,1.8071,1.8143,1.8139,1.818,1.82,1.8301,1.8343,1.8297,1.8469,1.844,1.8452,1.8438,1.8449,1.8456,1.8443,1.8287,0,0,0,0,0,1.7666,1.774,1.7818,1.7908,1.794,1.7996,1.8041,1.8063,1.8131,1.8158,1.8212,1.8279,1.8355,1.8405,1.8479,1.8591,1.8609,1.8638,1.8646,1.8652,1.8661,1.8721,1.8734,1.8597,1.8597,1.8597,0,0,1.7693,1.7753,1.7797,1.7909,1.7961,1.8037,1.8018,1.8099,1.8155,1.8171,1.8271,1.8313,1.839,1.8498,1.8548,1.8535,1.8703,1.866,1.8664,1.867,1.8729,1.8742,1.8753,1.8602,1.8601,1.86,0,0,1.778,1.7834,1.7914,1.7967,1.8046,1.8083,1.8102,1.8184,1.8212,1.8314,1.8326,1.8394,1.8526,1.8579,1.8624,1.8732,1.8737,1.8756,1.8795,1.8854,1.8865,1.8874,1.8911,1.8923,1.8765,1.8765,1.8765,0,1.7804,1.7917,1.7954,1.8034,1.8082,1.81,1.8181,1.8231,1.8331,1.8364,1.8349,1.8513,1.8566,1.8686,1.8712,1.8749,1.8771,1.8744,1.886,1.887,1.888,1.8915,1.8929,1.8766,1.8766,1.8766,1.8766,0,1.7941,1.802,1.8075,1.817,1.8225,1.8305,1.8354,1.8406,1.8423,1.8461,1.8564,1.8629,1.8716,1.8747,1.8765,1.8869,1.8859,1.8852,1.8823,1.8894,1.8927,1.8941,1.8769,1.8768,1.8768,1.8767,0,0,1.803,1.8145,1.8164,1.8207,1.8296,1.8357,1.8439,1.8524,1.8566,1.8635,1.8703,1.8814,1.8808,1.8859,1.8883,1.8935,1.9014,1.8922,1.8924,1.8934,1.913,1.9133,1.9148,1.9019,1.9022,1.9024,1.9123,0,1.8125,1.8268,1.8304,1.8427,1.8499,1.8518,1.8588,1.8651,1.8689,1.8756,1.8799,1.8876,1.8864,1.8894,1.8946,1.8993,1.9053,1.8987,1.9082,1.9084,1.9058,1.9166,1.9169,1.9259,1.9137,1.9139,1.9141,0,1.8254,1.8324,1.8454,1.8533,1.8564,1.8627,1.8707,1.8772,1.8843,1.8867,1.8924,1.8944,1.9029,1.8998,1.9115,1.9069,1.911,1.9139,1.9144,1.9151,1.9114,1.9174,1.9289,1.9301,1.9162,1.916,1.9159,0,1.8302,1.843,1.8523,1.856,1.8655,1.8698,1.874,1.8809,1.8857,1.8928,1.896,1.904,1.9084,1.9145,1.9186,1.916,1.93,1.9272,1.9321,1.932,1.9347,1.9344,1.9467,1.9378,1.9378,1.9378,1.9378,0,1.8402,1.848,1.8546,1.8603,1.8691,1.8732,1.8818,1.8861,1.8922,1.8987,1.901,1.9071,1.9123,1.9191,1.9224,1.9315,1.9335,1.9357,1.9364,1.9353,1.935,1.9378,1.9372,1.9382,1.9381,1.938,1.9379,0,1.847,1.8517,1.862,1.8702,1.8724,1.8785,1.8855,1.8911,1.8951,1.9034,1.9056,1.9118,1.9199,1.9247,1.9351,1.9373,1.9473,1.9479,1.9448,1.9451,1.9495,1.9489,1.9639,1.966,1.956,1.9561,1.9561,0,1.8529,1.8589,1.8677,1.8722,1.8764,1.8837,1.8887,1.8931,1.8981,1.9067,1.9113,1.9196,1.9264,1.9394,1.9448,1.9527,1.9534,1.9581,1.9545,1.9532,1.9531,1.9526,1.9531,1.9585,1.9586,1.9587,1.9588,0,1.8628,1.8649,1.8719,1.8797,1.8855,1.892,1.8983,1.902,1.9074,1.913,1.9213,1.9266,1.9372,1.9453,1.9537,1.958,1.9593,1.9599,1.9614,1.9601,1.958,1.959,1.9461,1.9594,1.9594,1.9593,1.9593,1.9593,1.8691,1.8745,1.8815,1.8892,1.8945,1.9004,1.906,1.9107,1.9177,1.9265,1.9288,1.9374,1.9445,1.9558,1.9604,1.9673,1.9665,1.9687,1.9692,1.9696,1.9696,1.9572,1.9689,1.9689,1.9688,1.9688,1.9688,0,1.8789,1.8835,1.8906,1.8994,1.9055,1.9062,1.9133,1.9183,1.9259,1.9323,1.939,1.9486,1.9565,1.9626,1.9708,1.9751,1.9759,1.9771,1.9767,1.9776,1.97,1.9677,1.9763,1.9763,1.9763,1.9763,1.9763,1.9763,1.8847,1.8937,1.8966,1.9083,1.9129,1.9213,1.9253,1.9308,1.9359,1.9464,1.953,1.9569,1.9633,1.9719,1.9792,1.9808,1.9836,1.9846,1.9863,1.979,1.9782,1.9774,1.9753,1.9853,1.9853,1.9933,1.9934,1.9935]},{"header":{"parameterUnit":"m.s-1","parameterCategory":1,"la1":30.2991,"la2":30.254,"lo1":-89.0895,"lo2":-89.0444,"dy":0.0017,"dx":0.0017,"nx":28,"ny":28,"refTime":"2026-02-03T09:00:00:Z","depth":0,"parameterNumber":3,"parameterNumberName":"V-component_of_WINDS"},"data":[0,0,0,0,0,0,0,0,0,0,0,0,0,0,0,0,0,0,0,0,0,0,0,0,0,0,0,0,0,0,0,0,0,0,0,0,0,0,0,0,0,0,0,0,0,0,0,0,0,0,0,0,0,0,0,0,0,0,2.1913,2.1914,0,2.1987,2.1988,2.1988,2.1962,2.196,2.1959,2.1957,2.2032,2.2035,2.2039,0,0,0,0,0,0,0,0,0,0,0,0,0,2.1746,2.175,2.1913,2.1914,2.1915,2.1987,2.1988,2.1989,2.1962,2.196,2.1958,2.1956,2.203,2.2035,2.2039,0,0,0,0,0,0,0,0,0,0,0,0,0,2.1819,2.1751,2.1913,2.191,2.1911,2.1986,2.1988,2.1989,2.1963,2.196,2.1958,2.1955,2.2029,2.2034,2.2039,2.2122,0,0,2.2056,2.2058,0,0,0,0,0,0,0,0,2.1815,2.1826,2.191,2.191,2.1911,2.1963,2.1956,2.2034,2.1963,2.1943,2.1957,2.1954,2.2011,2.2017,2.2037,2.2125,2.2129,2.2056,2.2059,2.2062,2.2063,0,0,0,0,0,0,0,2.181,2.1822,2.1942,2.1911,2.1912,2.1905,2.1912,2.1971,2.199,2.1944,2.1943,2.1952,2.2011,2.2032,2.2038,2.213,2.2056,2.2061,2.2064,2.2066,2.2287,2.229,0,0,0,0,0,0,2.1805,2.1818,2.194,2.1944,2.1856,2.191,2.1918,2.1949,2.1989,2.1993,2.1954,2.195,2.2024,2.2032,2.2041,2.2138,2.2062,2.2067,2.207,2.2285,2.2288,2.2291,0,0,0,0,0,0,2.1802,2.1816,2.1937,2.1881,2.1896,2.1915,2.195,2.1951,2.1972,2.1996,2.1999,2.1972,2.2022,2.2033,2.2101,2.2141,2.2069,2.2074,2.2281,2.2286,2.2289,2.2336,0,0,0,0,0,0,2.1797,2.1815,2.1847,2.1882,2.1899,2.1997,2.1952,2.1955,2.1982,2.1978,2.2014,2.2018,2.2021,2.2094,2.2107,2.2147,2.2078,2.2278,2.2283,2.2288,2.2331,2.2341,2.2349,0,0,0,0,0,2.1791,2.1858,2.1849,2.1864,2.194,2.2,2.2009,2.2012,2.1985,2.2017,2.2032,2.2016,2.2134,2.2101,2.2115,2.2158,2.2276,2.2282,2.2288,2.2326,2.2339,2.2349,0,0,0,0,0,0,2.1828,2.1862,2.1853,2.1933,2.1964,2.1995,2.2036,2.2025,2.2064,2.2059,2.206,2.2068,2.2138,2.2155,2.2117,2.2238,2.2201,2.221,2.2225,2.2237,2.2246,2.2241,2.2082,0,0,0,0,0,2.1845,2.1892,2.1919,2.1987,2.2003,2.2017,2.2043,2.2042,2.2074,2.2087,2.2107,2.2137,2.2181,2.221,2.2252,2.2333,2.2339,2.2368,2.2378,2.2385,2.2393,2.2435,2.2448,2.2311,2.2311,2.2311,0,0,2.1882,2.1906,2.1936,2.1995,2.2018,2.2066,2.2028,2.208,2.2114,2.2094,2.216,2.2175,2.221,2.2284,2.2318,2.23,2.2433,2.2393,2.2399,2.2403,2.2443,2.2456,2.2468,2.2315,2.2314,2.2313,0,0,2.1972,2.1996,2.2054,2.2078,2.2114,2.2123,2.2136,2.2169,2.2179,2.2245,2.223,2.227,2.2346,2.2371,2.2393,2.249,2.2477,2.2504,2.2553,2.2594,2.2605,2.2614,2.2648,2.266,2.2512,2.2512,2.2512,0,2.2013,2.2084,2.2085,2.2138,2.2164,2.2147,2.2206,2.2229,2.2276,2.2294,2.2273,2.2366,2.2389,2.2468,2.2491,2.251,2.2525,2.25,2.2603,2.2613,2.2622,2.2653,2.2666,2.2515,2.2514,2.2514,2.2514,0,2.2132,2.2181,2.2224,2.227,2.23,2.2355,2.2364,2.2395,2.2391,2.2401,2.2467,2.2492,2.2538,2.2557,2.2554,2.2635,2.2622,2.2602,2.2565,2.2638,2.2668,2.268,2.2519,2.2518,2.2517,2.2516,0,0,2.2249,2.2293,2.2309,2.2329,2.2366,2.2404,2.2457,2.2502,2.2528,2.256,2.2605,2.2668,2.2649,2.2674,2.2674,2.271,2.2783,2.2685,2.2686,2.2702,2.2873,2.2887,2.2901,2.2774,2.2777,2.2779,2.2869,0,2.2342,2.2436,2.2438,2.2524,2.2569,2.2553,2.2599,2.2626,2.2637,2.2676,2.2687,2.2731,2.2704,2.2719,2.2754,2.2767,2.2818,2.276,2.2815,2.2816,2.2806,2.2917,2.2933,2.3018,2.2881,2.2883,2.2885,0,2.2463,2.2499,2.259,2.2619,2.2638,2.268,2.2719,2.2757,2.2787,2.2792,2.2819,2.2812,2.2865,2.2826,2.2898,2.2859,2.2881,2.2891,2.2894,2.2899,2.2855,2.2924,2.3045,2.3057,2.2903,2.2902,2.29,0,2.2538,2.2609,2.2672,2.269,2.2726,2.2755,2.2771,2.2799,2.2825,2.2859,2.2876,2.2916,2.2938,2.2969,2.2973,2.2944,2.3045,2.3006,2.305,2.3049,2.3072,2.307,2.3197,2.3087,2.3087,2.3086,2.3086,0,2.2641,2.2697,2.2706,2.2745,2.2806,2.2807,2.2868,2.2881,2.2905,2.2946,2.2934,2.2972,2.2975,2.3013,2.3016,2.3075,2.3085,2.309,2.309,2.3091,2.309,2.3105,2.3099,2.309,2.3089,2.3088,2.3088,0,2.2736,2.2744,2.2811,2.2839,2.2847,2.2891,2.2915,2.2951,2.296,2.3011,2.3022,2.3036,2.308,2.3087,2.3139,2.3141,2.3211,2.3206,2.3201,2.32,2.3243,2.3239,2.3383,2.3402,2.328,2.3282,2.3283,0,2.2801,2.2843,2.2875,2.2901,2.2919,2.2961,2.2987,2.2989,2.3016,2.3052,2.3084,2.3127,2.3162,2.3233,2.3247,2.3287,2.3281,2.3329,2.3287,2.3286,2.3281,2.3278,2.3282,2.3337,2.3339,2.334,2.3341,0,2.2915,2.2917,2.2955,2.2994,2.3026,2.3057,2.3086,2.3108,2.3113,2.3144,2.3189,2.3216,2.3269,2.3312,2.335,2.3366,2.3354,2.3354,2.3366,2.3367,2.3362,2.3364,2.3223,2.335,2.3349,2.3349,2.3348,2.3348,2.2997,2.3033,2.306,2.3103,2.3125,2.3152,2.3187,2.3199,2.3237,2.328,2.3278,2.3328,2.3354,2.3405,2.3423,2.3461,2.3445,2.3463,2.3467,2.3471,2.3475,2.3356,2.3468,2.3468,2.3467,2.3467,2.3467,0,2.3109,2.3126,2.3165,2.3206,2.3239,2.3224,2.3255,2.3284,2.3327,2.3353,2.3387,2.3438,2.3479,2.3495,2.3535,2.3562,2.3557,2.3572,2.357,2.3573,2.3487,2.3473,2.3575,2.3575,2.3575,2.3575,2.3575,2.3575,2.3172,2.3232,2.3237,2.3307,2.3323,2.3371,2.339,2.3414,2.3434,2.3492,2.3526,2.3536,2.3558,2.3598,2.3634,2.3638,2.3653,2.367,2.3671,2.3591,2.358,2.3569,2.3555,2.3673,2.3674,2.3754,2.3755,2.3755]}]]